| time (UTC) | temp F | wind direction | speed knots | gust knots | rain 1hr in | rain 24hr in | rain mn in | humidity % | barometer mb |
| 20260902194554 | 60 | 159 | 0.0 | 0.0 | 0.00 | 0.00 | 0.00 | 86 | 1014.5 |
| 20260902193044 | 60 | 159 | 0.0 | 0.0 | 0.00 | 0.00 | 0.00 | 86 | 1014.5 |
| 20260902191551 | 60 | 159 | 0.0 | 0.0 | 0.00 | 0.00 | 0.00 | 87 | 1014.7 |
| 20260902190039 | 60 | 159 | 0.0 | 0.0 | 0.00 | 0.00 | 0.00 | 86 | 1014.7 |
| 20260902184537 | 60 | 159 | 0.0 | 0.0 | 0.00 | 0.00 | 0.00 | 86 | 1014.8 |
| 20260902183048 | 60 | 159 | 0.0 | 0.0 | 0.00 | 0.00 | 0.00 | 85 | 1014.8 |
| 20260902181535 | 61 | 159 | 0.0 | 0.0 | 0.00 | 0.00 | 0.00 | 85 | 1014.9 |
| 20260902180035 | 61 | 159 | 0.0 | 0.0 | 0.00 | 0.00 | 0.00 | 85 | 1015.0 |
| 20260902174534 | 61 | 159 | 0.0 | 0.0 | 0.00 | 0.00 | 0.00 | 84 | 1015.1 |
| 20260902173049 | 61 | 159 | 0.0 | 0.0 | 0.00 | 0.00 | 0.00 | 84 | 1015.1 |
| 20260902171530 | 61 | 159 | 0.0 | 0.0 | 0.00 | 0.00 | 0.00 | 83 | 1015.3 |
| 20260902170031 | 62 | 159 | 0.0 | 0.0 | 0.00 | 0.00 | 0.00 | 83 | 1015.4 |
| 20260902164534 | 62 | 159 | 0.0 | 0.0 | 0.00 | 0.00 | 0.00 | 82 | 1015.5 |
| 20260902163029 | 62 | 159 | 0.0 | 0.0 | 0.00 | 0.00 | 0.00 | 82 | 1015.5 |
| 20260902161531 | 62 | 159 | 0.0 | 0.0 | 0.00 | 0.00 | 0.00 | 82 | 1015.4 |
| 20260902160028 | 63 | 159 | 0.0 | 0.0 | 0.00 | 0.00 | 0.00 | 81 | 1015.4 |
| 20260902154545 | 64 | 159 | 0.0 | 0.0 | 0.00 | 0.00 | 0.00 | 80 | 1015.5 |
| 20260902153023 | 65 | 159 | 0.0 | 0.0 | 0.00 | 0.00 | 0.00 | 77 | 1015.4 |
| 20260902151531 | 66 | 159 | 0.0 | 0.0 | 0.00 | 0.00 | 0.00 | 76 | 1015.5 |
| 20260902150009 | 67 | 159 | 0.0 | 0.0 | 0.00 | 0.00 | 0.00 | 74 | 1015.4 |
| 20260902144508 | 67 | 159 | 0.0 | 0.9 | 0.00 | 0.00 | 0.00 | 73 | 1015.5 |
| 20260902143007 | 68 | 164 | 0.0 | 0.0 | 0.00 | 0.00 | 0.00 | 72 | 1015.6 |
| 20260902141506 | 69 | 165 | 0.0 | 0.0 | 0.00 | 0.00 | 0.00 | 71 | 1015.7 |
| 20260902140008 | 69 | 143 | 0.0 | 0.9 | 0.00 | 0.00 | 0.00 | 70 | 1015.8 |
| 20260902134503 | 70 | 179 | 0.0 | 0.9 | 0.00 | 0.00 | 0.00 | 68 | 1015.8 |
| 20260902133006 | 70 | 181 | 0.0 | 3.5 | 0.00 | 0.00 | 0.00 | 67 | 1015.9 |
| 20260902131502 | 70 | 163 | 0.0 | 1.7 | 0.00 | 0.00 | 0.00 | 66 | 1016.1 |
| 20260902124559 | 71 | 164 | 0.9 | 6.1 | 0.00 | 0.00 | 0.00 | 66 | 1016.3 |
| 20260902123057 | 70 | 155 | 0.0 | 0.9 | 0.00 | 0.00 | 0.00 | 66 | 1016.3 |
| 20260902121557 | 70 | 176 | 0.0 | 5.2 | 0.00 | 0.00 | 0.00 | 65 | 1016.4 |
| 20260902120056 | 70 | 202 | 0.0 | 0.9 | 0.00 | 0.00 | 0.00 | 65 | 1016.6 |
| 20260902114611 | 71 | 183 | 0.0 | 2.6 | 0.00 | 0.00 | 0.00 | 64 | 1016.7 |
| 20260902113052 | 71 | 224 | 0.0 | 2.6 | 0.00 | 0.00 | 0.00 | 67 | 1016.7 |
| 20260902111550 | 70 | 199 | 0.0 | 3.5 | 0.00 | 0.00 | 0.00 | 69 | 1016.8 |
| 20260902110059 | 70 | 204 | 0.0 | 2.6 | 0.00 | 0.00 | 0.00 | 68 | 1016.8 |
| 20260902104548 | 70 | 172 | 0.0 | 3.5 | 0.00 | 0.00 | 0.00 | 65 | 1016.9 |
| 20260902103058 | 70 | 246 | 0.0 | 4.3 | 0.00 | 0.00 | 0.00 | 66 | 1016.9 |
| 20260902101549 | 70 | 276 | 0.0 | 5.2 | 0.00 | 0.00 | 0.00 | 66 | 1017.0 |
| 20260902100045 | 69 | 266 | 0.0 | 3.5 | 0.00 | 0.00 | 0.00 | 68 | 1017.0 |
| 20260902094543 | 70 | 191 | 0.0 | 0.9 | 0.00 | 0.00 | 0.00 | 67 | 1017.1 |
| 20260902093042 | 69 | 152 | 0.0 | 0.0 | 0.00 | 0.00 | 0.00 | 72 | 1017.2 |
| 20260902091538 | 69 | 143 | 0.0 | 0.0 | 0.00 | 0.00 | 0.00 | 70 | 1017.3 |
| 20260902090035 | 68 | 236 | 0.0 | 2.6 | 0.00 | 0.00 | 0.00 | 71 | 1017.4 |
| 20260902084533 | 68 | 184 | 0.0 | 2.6 | 0.00 | 0.00 | 0.00 | 71 | 1017.4 |
| 20260902083037 | 68 | 185 | 0.0 | 0.9 | 0.00 | 0.00 | 0.00 | 72 | 1017.5 |
| 20260902081541 | 67 | 211 | 0.0 | 4.3 | 0.00 | 0.00 | 0.00 | 71 | 1017.6 |
| 20260902080042 | 67 | 201 | 0.0 | 4.3 | 0.00 | 0.00 | 0.00 | 73 | 1017.7 |
| 20260902074527 | 66 | 283 | 0.0 | 4.3 | 0.00 | 0.00 | 0.00 | 75 | 1017.7 |
| 20260902073031 | 66 | 273 | 0.0 | 2.6 | 0.00 | 0.00 | 0.00 | 75 | 1017.8 |
| 20260902071530 | 67 | 266 | 0.0 | 2.6 | 0.00 | 0.00 | 0.00 | 75 | 1017.8 |
| 20260902070022 | 66 | 249 | 0.0 | 3.5 | 0.00 | 0.00 | 0.00 | 78 | 1017.8 |
| 20260902064520 | 64 | 188 | 0.0 | 2.6 | 0.00 | 0.00 | 0.00 | 78 | 1017.8 |
| 20260902063018 | 64 | 186 | 0.0 | 4.3 | 0.00 | 0.00 | 0.00 | 79 | 1017.8 |
| 20260902061515 | 63 | 283 | 0.0 | 1.7 | 0.00 | 0.00 | 0.00 | 80 | 1017.8 |
| 20260902060017 | 63 | 243 | 0.0 | 2.6 | 0.00 | 0.00 | 0.00 | 81 | 1017.8 |
| 20260902054521 | 63 | 272 | 0.0 | 0.9 | 0.00 | 0.00 | 0.00 | 81 | 1017.9 |
| 20260902053011 | 62 | 216 | 0.0 | 0.0 | 0.00 | 0.00 | 0.00 | 83 | 1017.9 |
| 20260902051508 | 61 | 232 | 0.0 | 0.0 | 0.00 | 0.00 | 0.00 | 85 | 1017.9 |
| 20260902050007 | 60 | 276 | 0.0 | 0.9 | 0.00 | 0.00 | 0.00 | 85 | 1017.9 |
| 20260902044603 | 60 | 241 | 0.0 | 0.0 | 0.00 | 0.00 | 0.00 | 87 | 1017.9 |
| 20260902043058 | 58 | 281 | 0.0 | 0.0 | 0.00 | 0.00 | 0.00 | 91 | 1018.1 |
| 20260902041608 | 56 | 281 | 0.0 | 0.0 | 0.00 | 0.00 | 0.00 | 91 | 1018.1 |
| 20260902040056 | 57 | 226 | 0.0 | 0.0 | 0.00 | 0.00 | 0.00 | 93 | 1018.1 |
| 20260902034554 | 55 | 224 | 0.0 | 0.0 | 0.00 | 0.00 | 0.00 | 96 | 1018.1 |
| 20260902033054 | 53 | 102 | 0.0 | 0.0 | 0.00 | 0.00 | 0.00 | 97 | 1018.1 |
| 20260902031547 | 52 | 102 | 0.0 | 0.0 | 0.00 | 0.00 | 0.00 | 97 | 1018.1 |
| 20260902030049 | 51 | 102 | 0.0 | 0.0 | 0.00 | 0.00 | 0.00 | 96 | 1018.0 |
| 20260902024546 | 51 | 102 | 0.0 | 0.0 | 0.00 | 0.00 | 0.00 | 96 | 1017.9 |
| 20260902023048 | 52 | 102 | 0.0 | 0.0 | 0.00 | 0.00 | 0.00 | 97 | 1017.8 |
| 20260902021550 | 51 | 102 | 0.0 | 0.0 | 0.00 | 0.00 | 0.00 | 97 | 1017.8 |
| 20260902020046 | 50 | 102 | 0.0 | 0.0 | 0.00 | 0.00 | 0.00 | 96 | 1017.9 |
| 20260902014549 | 51 | 102 | 0.0 | 0.0 | 0.00 | 0.00 | 0.00 | 96 | 1017.7 |
| 20260902013044 | 50 | 102 | 0.0 | 0.0 | 0.00 | 0.00 | 0.00 | 95 | 1017.7 |
| 20260902011543 | 51 | 102 | 0.0 | 0.0 | 0.00 | 0.00 | 0.00 | 95 | 1017.8 |
| 20260902010042 | 51 | 102 | 0.0 | 0.0 | 0.00 | 0.00 | 0.00 | 95 | 1017.7 |
| 20260902004542 | 51 | 102 | 0.0 | 0.0 | 0.00 | 0.00 | 0.00 | 94 | 1017.7 |
| 20260902003042 | 51 | 102 | 0.0 | 0.0 | 0.00 | 0.00 | 0.00 | 94 | 1017.7 |
| 20260902001536 | 52 | 102 | 0.0 | 0.0 | 0.00 | 0.00 | 0.00 | 95 | 1017.8 |
| 20260902000034 | 52 | 102 | 0.0 | 0.0 | 0.00 | 0.00 | 0.00 | 95 | 1017.9 |
| 20260901234534 | 52 | 102 | 0.0 | 0.0 | 0.00 | 0.00 | 0.00 | 94 | 1018.0 |
| 20260901233034 | 53 | 102 | 0.0 | 0.0 | 0.00 | 0.00 | 0.00 | 94 | 1017.9 |
| 20260901231533 | 53 | 102 | 0.0 | 0.0 | 0.00 | 0.00 | 0.00 | 93 | 1017.9 |
| 20260901230036 | 54 | 102 | 0.0 | 0.0 | 0.00 | 0.00 | 0.00 | 95 | 1018.1 |
| 20260901224530 | 53 | 102 | 0.0 | 0.0 | 0.00 | 0.00 | 0.00 | 95 | 1018.1 |
| 20260901223029 | 53 | 101 | 0.0 | 0.0 | 0.00 | 0.00 | 0.00 | 94 | 1018.0 |
| 20260901221533 | 53 | 101 | 0.0 | 0.0 | 0.00 | 0.00 | 0.00 | 94 | 1018.0 |
| 20260901220052 | 53 | 101 | 0.0 | 0.0 | 0.00 | 0.00 | 0.00 | 94 | 1018.1 |
| 20260901214525 | 53 | 101 | 0.0 | 0.0 | 0.00 | 0.00 | 0.00 | 94 | 1018.2 |
| 20260901213056 | 53 | 101 | 0.0 | 0.0 | 0.00 | 0.00 | 0.00 | 93 | 1018.2 |
| 20260901211525 | 53 | 101 | 0.0 | 0.0 | 0.00 | 0.00 | 0.00 | 93 | 1018.2 |
| 20260901210024 | 53 | 101 | 0.0 | 0.0 | 0.00 | 0.00 | 0.00 | 93 | 1018.2 |
| 20260901204534 | 53 | 101 | 0.0 | 0.0 | 0.00 | 0.00 | 0.00 | 93 | 1018.3 |
| 20260901203044 | 53 | 101 | 0.0 | 0.0 | 0.00 | 0.00 | 0.00 | 93 | 1018.3 |
| 20260901201521 | 53 | 101 | 0.0 | 0.0 | 0.00 | 0.00 | 0.00 | 92 | 1018.3 |
| 20260901200019 | 53 | 101 | 0.0 | 0.0 | 0.00 | 0.00 | 0.00 | 92 | 1018.1 |